TimeCST,TemperatureF,Dew PointF,Humidity,Sea Level PressureIn,VisibilityMPH,Wind Direction,Wind SpeedMPH,Gust SpeedMPH,PrecipitationIn,Events,Conditions,WindDirDegrees,DateUTC
12:12 AM,41.0,33.8,76,29.99,10.0,NE,5.8,-,N/A,,Clear,50,2012-11-09 06:12:00
12:33 AM,41.0,33.8,76,29.98,10.0,NE,5.8,-,N/A,,Clear,50,2012-11-09 06:33:00
12:53 AM,39.2,32.0,75,29.98,10.0,ENE,4.6,-,N/A,,Clear,70,2012-11-09 06:53:00
1:13 AM,39.2,33.8,81,29.97,10.0,ENE,4.6,-,N/A,,Clear,70,2012-11-09 07:13:00
1:32 AM,39.2,33.8,81,29.96,10.0,East,5.8,-,N/A,,Clear,80,2012-11-09 07:32:00
1:53 AM,39.2,33.8,81,29.96,10.0,ENE,6.9,-,N/A,,Clear,70,2012-11-09 07:53:00
2:13 AM,39.2,33.8,81,29.97,7.0,ENE,5.8,-,N/A,,Clear,60,2012-11-09 08:13:00
2:33 AM,39.2,33.8,81,29.97,7.0,NE,4.6,-,N/A,,Clear,50,2012-11-09 08:33:00
2:53 AM,35.6,32.0,87,29.98,7.0,NE,5.8,-,N/A,,Clear,40,2012-11-09 08:53:00
3:13 AM,37.4,33.8,87,29.97,7.0,NE,4.6,-,N/A,,Clear,50,2012-11-09 09:13:00
3:33 AM,35.6,32.0,87,29.96,5.0,ENE,6.9,-,N/A,,Haze,60,2012-11-09 09:33:00
3:52 AM,39.2,33.8,81,29.96,7.0,ENE,6.9,-,N/A,,Clear,60,2012-11-09 09:52:00
4:13 AM,39.2,33.8,81,29.97,7.0,ENE,5.8,-,N/A,,Clear,60,2012-11-09 10:13:00
4:33 AM,39.2,33.8,81,29.98,7.0,NE,4.6,-,N/A,,Clear,50,2012-11-09 10:33:00
4:53 AM,35.6,32.0,87,29.98,5.0,NNE,8.1,-,N/A,,Haze,30,2012-11-09 10:53:00
5:12 AM,35.6,32.0,87,29.99,5.0,NE,8.1,-,N/A,,Haze,40,2012-11-09 11:12:00
5:53 AM,35.6,32.0,87,29.98,5.0,ENE,8.1,-,N/A,,Haze,60,2012-11-09 11:53:00
6:13 AM,35.6,32.0,87,29.98,5.0,ENE,8.1,-,N/A,,Clear,60,2012-11-09 12:13:00
6:33 AM,35.6,32.0,87,29.98,5.0,ENE,9.2,-,N/A,,Clear,60,2012-11-09 12:33:00
6:52 AM,35.6,32.0,87,29.99,5.0,ENE,9.2,-,N/A,,Clear,60,2012-11-09 12:52:00
7:13 AM,35.6,32.0,87,29.99,4.0,ENE,9.2,-,N/A,,Clear,60,2012-11-09 13:13:00
7:33 AM,39.2,33.8,81,29.99,4.0,ENE,9.2,-,N/A,,Haze,60,2012-11-09 13:33:00
7:53 AM,39.2,33.8,81,30.00,4.0,ENE,6.9,-,N/A,,Haze,60,2012-11-09 13:53:00
8:13 AM,39.2,33.8,81,30.01,4.0,ENE,8.1,-,N/A,,Haze,60,2012-11-09 14:13:00
8:33 AM,41.0,35.6,81,30.01,4.0,East,8.1,-,N/A,,Haze,80,2012-11-09 14:33:00
8:53 AM,41.0,35.6,81,30.01,5.0,ENE,6.9,-,N/A,,Haze,70,2012-11-09 14:53:00
9:13 AM,41.0,35.6,81,30.01,5.0,ENE,9.2,-,N/A,,Haze,70,2012-11-09 15:13:00
9:33 AM,44.6,37.4,76,30.00,5.0,ENE,9.2,-,N/A,,Haze,70,2012-11-09 15:33:00
9:53 AM,44.6,37.4,76,29.99,7.0,ENE,10.4,-,N/A,,Clear,70,2012-11-09 15:53:00
10:13 AM,46.4,37.4,71,29.99,7.0,East,15.0,-,N/A,,Clear,80,2012-11-09 16:13:00
10:33 AM,50.0,37.4,62,29.98,7.0,East,16.1,23.0,N/A,,Clear,80,2012-11-09 16:33:00
10:53 AM,51.8,39.2,62,29.98,10.0,East,15.0,25.3,N/A,,Clear,90,2012-11-09 16:53:00
11:13 AM,51.8,39.2,62,29.97,10.0,East,17.3,28.8,N/A,,Clear,90,2012-11-09 17:13:00
11:33 AM,53.6,41.0,62,29.97,10.0,East,16.1,24.2,N/A,,Clear,90,2012-11-09 17:33:00
11:53 AM,53.6,39.2,58,29.96,10.0,East,23.0,26.5,N/A,,Clear,90,2012-11-09 17:53:00
12:13 PM,53.6,39.2,58,29.95,10.0,East,17.3,24.2,N/A,,Clear,90,2012-11-09 18:13:00
12:33 PM,51.8,37.4,58,29.94,10.0,East,18.4,23.0,N/A,,Clear,90,2012-11-09 18:33:00
12:53 PM,53.6,41.0,62,29.93,10.0,East,15.0,-,N/A,,Clear,90,2012-11-09 18:53:00
1:13 PM,53.6,41.0,62,29.93,7.0,East,18.4,21.9,N/A,,Clear,90,2012-11-09 19:13:00
1:33 PM,53.6,39.2,58,29.92,10.0,East,19.6,-,N/A,,Clear,80,2012-11-09 19:33:00
1:53 PM,53.6,39.2,58,29.91,10.0,East,17.3,21.9,N/A,,Clear,80,2012-11-09 19:53:00
2:13 PM,53.6,41.0,62,29.91,7.0,East,15.0,-,N/A,,Clear,80,2012-11-09 20:13:00
2:33 PM,53.6,41.0,62,29.90,10.0,ENE,16.1,20.7,N/A,,Clear,70,2012-11-09 20:33:00
2:53 PM,53.6,41.0,62,29.90,7.0,ENE,12.7,-,N/A,,Clear,60,2012-11-09 20:53:00
3:13 PM,51.8,37.4,58,29.91,7.0,ENE,13.8,-,N/A,,Clear,70,2012-11-09 21:13:00
3:33 PM,51.8,37.4,58,29.90,7.0,ENE,15.0,-,N/A,,Clear,60,2012-11-09 21:33:00
3:53 PM,51.8,37.4,58,29.90,7.0,ENE,16.1,-,N/A,,Clear,60,2012-11-09 21:53:00
4:13 PM,51.8,39.2,62,29.90,7.0,ENE,16.1,20.7,N/A,,Clear,60,2012-11-09 22:13:00
4:33 PM,50.0,37.4,62,29.90,7.0,ENE,16.1,21.9,N/A,,Scattered Clouds,70,2012-11-09 22:33:00
4:53 PM,50.0,37.4,62,29.91,7.0,ENE,11.5,19.6,N/A,,Mostly Cloudy,70,2012-11-09 22:53:00
5:13 PM,50.0,37.4,62,29.92,7.0,ENE,10.4,-,N/A,,Overcast,70,2012-11-09 23:13:00
5:33 PM,48.2,37.4,66,29.92,7.0,East,13.8,-,N/A,,Overcast,80,2012-11-09 23:33:00
5:53 PM,48.2,37.4,66,29.92,7.0,ENE,10.4,-,N/A,,Overcast,70,2012-11-09 23:53:00
6:13 PM,48.2,37.4,66,29.91,7.0,ENE,12.7,19.6,N/A,,Overcast,70,2012-11-10 00:13:00
6:33 PM,48.2,37.4,66,29.91,7.0,East,15.0,-,N/A,,Overcast,80,2012-11-10 00:33:00
6:53 PM,48.2,37.4,66,29.91,7.0,East,15.0,18.4,N/A,,Overcast,80,2012-11-10 00:53:00
7:13 PM,48.2,37.4,66,29.91,7.0,East,15.0,19.6,N/A,,Overcast,90,2012-11-10 01:13:00
7:33 PM,48.2,37.4,66,29.92,7.0,East,13.8,24.2,N/A,,Overcast,90,2012-11-10 01:33:00
7:53 PM,48.2,37.4,66,29.92,7.0,East,16.1,21.9,N/A,,Overcast,80,2012-11-10 01:53:00
8:13 PM,46.4,37.4,71,29.92,7.0,East,16.1,-,N/A,,Overcast,80,2012-11-10 02:13:00
8:33 PM,46.4,37.4,71,29.93,7.0,East,16.1,23.0,N/A,,Overcast,80,2012-11-10 02:33:00
8:53 PM,46.4,37.4,71,29.93,7.0,East,13.8,19.6,N/A,,Overcast,80,2012-11-10 02:53:00
9:13 PM,46.4,37.4,71,29.93,7.0,ENE,15.0,21.9,N/A,,Overcast,70,2012-11-10 03:13:00
9:33 PM,46.4,37.4,71,29.93,7.0,East,16.1,20.7,N/A,,Overcast,80,2012-11-10 03:33:00
9:53 PM,46.4,37.4,71,29.93,7.0,East,16.1,20.7,N/A,,Overcast,80,2012-11-10 03:53:00
10:13 PM,46.4,37.4,71,29.91,7.0,East,17.3,-,N/A,,Overcast,80,2012-11-10 04:13:00
10:33 PM,46.4,37.4,71,29.91,7.0,East,16.1,24.2,N/A,,Overcast,80,2012-11-10 04:33:00
11:13 PM,46.4,37.4,71,29.89,7.0,East,19.6,-,N/A,,Mostly Cloudy,80,2012-11-10 05:13:00
11:33 PM,46.4,37.4,71,29.88,7.0,East,18.4,23.0,N/A,,Overcast,80,2012-11-10 05:33:00
11:53 PM,46.4,37.4,71,29.87,5.0,East,21.9,25.3,N/A,,Haze,90,2012-11-10 05:53:00